Hourly Data Report for September 29, 2016

All times are specified in Local Standard Time (LST). Add 1 hour to adjust for Daylight Saving Time where and when it is observed.

CORAL HARBOUR A
NUNAVUT

64°11'36.000" N
83°21'34.000" W
62.20 m
2301002
71915
YZS

Download Data

Hourly Data (September 2016)
Hourly Data Report for September 29, 2016
Temp Definition
°C
Dew Point Temp Definition
°C
Rel Hum Definition
%
Wind Dir Definition
10's deg

Wind Spd Definition
km/h
Visibility Definition
km
Stn Press Definition
kPa
Hmdx Definition


Wind Chill Definition


Weather Definition


TIME
00:00 Legend Double Dagger 3.6 2.7 94 23 27 24.1 99.65     LegendNANA
01:00 Legend Double Dagger 3.1 2.1 93 23 26 24.1 99.63     Mainly Clear
02:00 Legend Double Dagger 3.3 2.1 92 24 33 24.1 99.60     LegendNANA
03:00 Legend Double Dagger 3.5 2.2 91 24 33 24.1 99.58     Rain
04:00 Legend Double Dagger 3.4 1.9 90 25 33 24.1 99.59     Mostly Cloudy
05:00 Legend Double Dagger 3.2 1.7 90 25 36 24.1 99.60     LegendNANA
06:00 Legend Double Dagger 3.1 1.3 88 26 36 24.1 99.65     LegendNANA
07:00 Legend Double Dagger 3.0 1.2 88 26 43 24.1 99.67     Cloudy
08:00 Legend Double Dagger 2.7 1.1 89 26 48 19.3 99.70     Rain Showers
09:00 Legend Double Dagger 2.5 0.6 87 27 51 19.3 99.78     Rain Showers
10:00 Legend Double Dagger 2.9 -0.6 78 27 53 24.1 99.85     Mainly Clear
11:00 Legend Double Dagger 1.5 -0.6 86 27 62 19.3 99.91     Moderate Snow Showers
12:00 Legend Double Dagger 2.2 -1.2 78 27 58 24.1 99.90     LegendNANA
13:00 Legend Double Dagger 2.4 -1.6 75 27 49 9.7 99.97     Snow Pellets
14:00 Legend Double Dagger 1.4 -1.2 83 28 54 19.3 100.00     LegendNANA
15:00 Legend Double Dagger 2.5 -2.4 70 27 66 19.3 100.04     LegendNANA
16:00 Legend Double Dagger 2.1 -2.8 70 26 62 24.1 100.09     Mainly Clear
17:00 Legend Double Dagger 1.2 -2.2 78 27 55 16.1 100.11     Snow Showers
18:00 Legend Double Dagger 1.3 -2.1 78 27 39 24.1 100.14     LegendNANA
19:00 Legend Double Dagger 1.3 -3.4 71 27 46 24.1 100.19     Mostly Cloudy
20:00 Legend Double Dagger 1.6 -3.5 69 28 38 24.1 100.29     LegendNANA
21:00 Legend Double Dagger 1.2 -2.0 79 26 21 24.1 100.31     LegendNANA
22:00 Legend Double Dagger 0.9 -2.7 77 28 34 24.1 100.34     Mainly Clear
23:00 Legend Double Dagger 0.4 -3.2 77 28 26 24.1 100.39     LegendNANA

Notes on Data Quality.

Legend

  • E = Estimated
  • M = Missing
  • NA = Not Available
  • ‡ = Partner data that is not subject to review by the National Climate Archives
Date modified: